Time,TemperatureF,DewpointF,PressureIn,WindDirection,WindDirectionDegrees,WindSpeedMPH,WindSpeedGustMPH,Humidity,HourlyPrecipIn,Conditions,Clouds,dailyrainin,SoftwareType,DateUTC
2013-01-08 00:00:00,15.2,12.1,30.34,North,6,0.0,0.0,87,0.00,CLR,,0.00,WeatherDisplay:10.37,2013-01-08 05:00:00,
2013-01-08 00:10:00,14.2,11.1,30.34,North,6,0.0,0.0,87,0.00,CLR,,0.00,WeatherDisplay:10.37,2013-01-08 05:10:00,
2013-01-08 00:20:00,13.9,10.7,30.34,North,6,0.0,0.0,87,0.00,CLR,,0.00,WeatherDisplay:10.37,2013-01-08 05:20:00,
2013-01-08 00:25:00,14.3,11.1,30.34,North,6,0.0,0.0,87,0.00,CLR,,0.00,WeatherDisplay:10.37,2013-01-08 05:25:00,
2013-01-08 00:30:00,14.8,11.6,30.33,North,6,0.0,0.0,87,0.00,CLR,,0.00,WeatherDisplay:10.37,2013-01-08 05:30:00,
2013-01-08 00:35:00,14.3,11.2,30.33,North,6,0.0,0.0,87,0.00,CLR,,0.00,WeatherDisplay:10.37,2013-01-08 05:35:00,
2013-01-08 00:40:00,14.4,11.2,30.33,North,6,0.0,0.0,87,0.00,CLR,,0.00,WeatherDisplay:10.37,2013-01-08 05:40:00,
2013-01-08 00:45:00,14.6,11.4,30.33,North,6,0.0,0.0,87,0.00,CLR,,0.00,WeatherDisplay:10.37,2013-01-08 05:45:00,
2013-01-08 00:50:00,14.6,11.5,30.33,North,6,0.0,0.0,87,0.00,CLR,,0.00,WeatherDisplay:10.37,2013-01-08 05:50:00,
2013-01-08 00:55:00,14.9,11.7,30.33,North,6,0.0,0.0,87,0.00,CLR,,0.00,WeatherDisplay:10.37,2013-01-08 05:55:00,
2013-01-08 01:00:00,13.8,10.6,30.33,North,6,0.0,0.0,87,0.00,CLR,,0.00,WeatherDisplay:10.37,2013-01-08 06:00:00,
2013-01-08 01:05:00,13.3,9.9,30.33,North,6,0.0,0.0,86,0.00,CLR,,0.00,WeatherDisplay:10.37,2013-01-08 06:05:00,
2013-01-08 01:10:00,13.3,9.9,30.33,North,6,0.0,0.0,86,0.00,CLR,,0.00,WeatherDisplay:10.37,2013-01-08 06:10:00,
2013-01-08 01:15:00,13.9,10.5,30.33,North,6,0.0,0.0,86,0.00,CLR,,0.00,WeatherDisplay:10.37,2013-01-08 06:15:00,
2013-01-08 01:20:00,13.1,9.7,30.33,North,6,0.0,0.0,86,0.00,CLR,,0.00,WeatherDisplay:10.37,2013-01-08 06:20:00,
2013-01-08 01:25:00,13.7,10.3,30.32,North,6,0.0,0.0,86,0.00,CLR,,0.00,WeatherDisplay:10.37,2013-01-08 06:25:00,
2013-01-08 01:30:00,13.8,10.4,30.32,North,6,0.0,0.0,86,0.00,CLR,,0.00,WeatherDisplay:10.37,2013-01-08 06:30:00,
2013-01-08 01:40:00,14.8,11.4,30.33,North,6,0.0,0.0,86,0.00,CLR,,0.00,WeatherDisplay:10.37,2013-01-08 06:40:00,
2013-01-08 01:50:00,14.0,10.5,30.32,North,6,0.0,0.0,86,0.00,CLR,,0.00,WeatherDisplay:10.37,2013-01-08 06:50:00,
2013-01-08 01:55:00,14.4,11.0,30.32,North,6,0.0,0.0,86,0.00,CLR,,0.00,WeatherDisplay:10.37,2013-01-08 06:55:00,
2013-01-08 02:00:00,14.3,10.9,30.32,North,6,0.0,0.0,86,0.00,CLR,,0.00,WeatherDisplay:10.37,2013-01-08 07:00:00,
2013-01-08 02:05:00,14.1,10.7,30.32,North,6,0.0,0.0,86,0.00,CLR,,0.00,WeatherDisplay:10.37,2013-01-08 07:05:00,
2013-01-08 02:10:00,13.7,10.3,30.32,North,6,0.0,0.0,86,0.00,CLR,,0.00,WeatherDisplay:10.37,2013-01-08 07:10:00,
2013-01-08 02:15:00,13.2,9.8,30.32,North,6,0.0,0.0,86,0.00,CLR,,0.00,WeatherDisplay:10.37,2013-01-08 07:15:00,
2013-01-08 02:20:00,13.5,10.1,30.32,North,6,0.0,0.0,86,0.00,CLR,,0.00,WeatherDisplay:10.37,2013-01-08 07:20:00,
2013-01-08 02:25:00,13.7,10.3,30.32,North,6,0.0,0.0,86,0.00,CLR,,0.00,WeatherDisplay:10.37,2013-01-08 07:25:00,
2013-01-08 02:30:00,12.9,9.5,30.32,North,6,0.0,0.0,86,0.00,CLR,,0.00,WeatherDisplay:10.37,2013-01-08 07:30:00,
2013-01-08 02:35:00,13.5,10.1,30.31,North,6,0.0,0.0,86,0.00,CLR,,0.00,WeatherDisplay:10.37,2013-01-08 07:35:00,
2013-01-08 02:40:00,13.2,9.8,30.31,North,6,0.0,0.0,86,0.00,CLR,,0.00,WeatherDisplay:10.37,2013-01-08 07:40:00,
2013-01-08 02:45:00,13.1,9.7,30.31,North,6,0.0,0.0,86,0.00,CLR,,0.00,WeatherDisplay:10.37,2013-01-08 07:45:00,
2013-01-08 02:50:00,13.2,9.8,30.31,North,6,0.0,0.0,86,0.00,CLR,,0.00,WeatherDisplay:10.37,2013-01-08 07:50:00,
2013-01-08 02:55:00,13.3,9.9,30.31,North,6,0.0,0.0,86,0.00,CLR,,0.00,WeatherDisplay:10.37,2013-01-08 07:55:00,
2013-01-08 03:00:00,13.6,10.2,30.31,North,6,0.0,0.0,86,0.00,CLR,,0.00,WeatherDisplay:10.37,2013-01-08 08:00:00,
2013-01-08 03:05:00,13.0,9.9,30.31,North,6,0.0,0.0,87,0.00,CLR,,0.00,WeatherDisplay:10.37,2013-01-08 08:05:00,
2013-01-08 03:10:00,12.7,9.5,30.31,North,6,0.0,0.0,87,0.00,CLR,,0.00,WeatherDisplay:10.37,2013-01-08 08:10:00,
2013-01-08 03:15:00,12.9,9.8,30.31,North,6,0.0,0.0,87,0.00,CLR,,0.00,WeatherDisplay:10.37,2013-01-08 08:15:00,
2013-01-08 03:20:00,13.2,10.0,30.30,North,6,0.0,0.0,87,0.00,CLR,,0.00,WeatherDisplay:10.37,2013-01-08 08:20:00,
2013-01-08 03:25:00,13.6,10.5,30.30,North,6,0.0,0.0,87,0.00,CLR,,0.00,WeatherDisplay:10.37,2013-01-08 08:25:00,
2013-01-08 03:30:00,13.9,10.7,30.30,North,6,0.0,0.0,87,0.00,CLR,,0.00,WeatherDisplay:10.37,2013-01-08 08:30:00,
2013-01-08 03:40:00,13.6,10.4,30.30,North,6,0.0,0.0,87,0.00,CLR,,0.00,WeatherDisplay:10.37,2013-01-08 08:40:00,
2013-01-08 03:45:00,13.8,10.6,30.29,North,6,0.0,0.0,87,0.00,CLR,,0.00,WeatherDisplay:10.37,2013-01-08 08:45:00,
2013-01-08 03:50:00,13.9,10.7,30.29,North,6,0.0,0.0,87,0.00,CLR,,0.00,WeatherDisplay:10.37,2013-01-08 08:50:00,
2013-01-08 03:55:00,13.4,10.2,30.29,North,6,0.0,0.0,87,0.00,CLR,,0.00,WeatherDisplay:10.37,2013-01-08 08:55:00,
2013-01-08 04:00:00,13.3,10.1,30.29,North,6,0.0,0.0,87,0.00,CLR,,0.00,WeatherDisplay:10.37,2013-01-08 09:00:00,
2013-01-08 04:05:00,13.6,10.5,30.29,North,6,0.0,0.0,87,0.00,CLR,,0.00,WeatherDisplay:10.37,2013-01-08 09:05:00,
2013-01-08 04:10:00,13.9,10.7,30.28,North,6,0.0,0.0,87,0.00,CLR,,0.00,WeatherDisplay:10.37,2013-01-08 09:10:00,
2013-01-08 04:15:00,14.7,11.5,30.28,North,6,0.0,0.0,87,0.00,CLR,,0.00,WeatherDisplay:10.37,2013-01-08 09:15:00,
2013-01-08 04:20:00,15.0,11.8,30.28,North,6,0.0,0.0,87,0.00,CLR,,0.00,WeatherDisplay:10.37,2013-01-08 09:20:00,
2013-01-08 04:25:00,14.3,11.1,30.28,North,6,0.0,0.0,87,0.00,CLR,,0.00,WeatherDisplay:10.37,2013-01-08 09:25:00,
2013-01-08 04:30:00,13.8,10.6,30.28,North,6,0.0,0.0,87,0.00,CLR,,0.00,WeatherDisplay:10.37,2013-01-08 09:30:00,
2013-01-08 04:40:00,14.6,11.5,30.28,North,6,0.0,0.0,87,0.00,CLR,,0.00,WeatherDisplay:10.37,2013-01-08 09:40:00,
2013-01-08 04:45:00,14.9,11.7,30.27,North,6,0.0,0.0,87,0.00,CLR,,0.00,WeatherDisplay:10.37,2013-01-08 09:45:00,
2013-01-08 04:50:00,14.8,11.7,30.27,North,6,0.0,0.0,87,0.00,CLR,,0.00,WeatherDisplay:10.37,2013-01-08 09:50:00,
2013-01-08 04:55:00,14.8,11.6,30.27,North,6,0.0,0.0,87,0.00,CLR,,0.00,WeatherDisplay:10.37,2013-01-08 09:55:00,
2013-01-08 05:00:00,14.8,11.7,30.27,North,6,0.0,0.0,87,0.00,CLR,,0.00,WeatherDisplay:10.37,2013-01-08 10:00:00,
2013-01-08 05:05:00,15.3,11.9,30.27,North,6,0.0,0.0,86,0.00,CLR,,0.00,WeatherDisplay:10.37,2013-01-08 10:05:00,
2013-01-08 05:10:00,15.0,11.6,30.27,North,6,0.0,0.0,86,0.00,CLR,,0.00,WeatherDisplay:10.37,2013-01-08 10:10:00,
2013-01-08 05:15:00,16.1,12.7,30.27,North,6,0.0,0.0,86,0.00,CLR,,0.00,WeatherDisplay:10.37,2013-01-08 10:15:00,
2013-01-08 05:20:00,15.9,12.4,30.27,North,6,0.0,0.0,86,0.00,CLR,,0.00,WeatherDisplay:10.37,2013-01-08 10:20:00,
2013-01-08 05:25:00,16.1,12.7,30.27,North,6,0.0,0.0,86,0.00,CLR,,0.00,WeatherDisplay:10.37,2013-01-08 10:25:00,
2013-01-08 05:30:00,16.2,12.7,30.27,North,6,0.0,0.0,86,0.00,CLR,,0.00,WeatherDisplay:10.37,2013-01-08 10:30:00,
2013-01-08 05:35:00,16.8,13.3,30.27,North,6,0.0,0.0,86,0.00,CLR,,0.00,WeatherDisplay:10.37,2013-01-08 10:35:00,
2013-01-08 05:40:00,17.2,13.8,30.28,North,6,0.0,0.0,86,0.00,CLR,,0.00,WeatherDisplay:10.37,2013-01-08 10:40:00,
2013-01-08 05:45:00,17.6,14.1,30.27,North,6,0.0,0.0,86,0.00,CLR,,0.00,WeatherDisplay:10.37,2013-01-08 10:45:00,
2013-01-08 05:50:00,16.8,13.3,30.28,North,6,0.0,0.0,86,0.00,CLR,,0.00,WeatherDisplay:10.37,2013-01-08 10:50:00,
2013-01-08 05:55:00,16.7,13.3,30.28,North,6,0.0,0.0,86,0.00,CLR,,0.00,WeatherDisplay:10.37,2013-01-08 10:55:00,
2013-01-08 06:00:00,16.7,13.3,30.28,North,6,0.0,0.0,86,0.00,CLR,,0.00,WeatherDisplay:10.37,2013-01-08 11:00:00,
2013-01-08 06:05:00,16.6,13.4,30.28,North,6,0.0,0.0,87,0.00,CLR,,0.00,WeatherDisplay:10.37,2013-01-08 11:05:00,
2013-01-08 06:10:00,17.6,14.4,30.28,North,6,0.0,0.0,87,0.00,CLR,,0.00,WeatherDisplay:10.37,2013-01-08 11:10:00,
2013-01-08 06:15:00,17.6,14.4,30.28,North,6,0.0,0.0,87,0.00,CLR,,0.00,WeatherDisplay:10.37,2013-01-08 11:15:00,
2013-01-08 06:20:00,17.5,14.3,30.28,North,6,0.0,0.0,87,0.00,CLR,,0.00,WeatherDisplay:10.37,2013-01-08 11:20:00,
2013-01-08 06:25:00,17.4,14.1,30.27,North,6,0.0,0.0,87,0.00,CLR,,0.00,WeatherDisplay:10.37,2013-01-08 11:25:00,
2013-01-08 06:30:00,17.8,14.6,30.27,North,6,0.0,0.0,87,0.00,CLR,,0.00,WeatherDisplay:10.37,2013-01-08 11:30:00,
2013-01-08 06:35:00,16.9,13.7,30.27,North,6,0.0,0.0,87,0.00,CLR,,0.00,WeatherDisplay:10.37,2013-01-08 11:35:00,
2013-01-08 06:40:00,17.0,13.8,30.28,North,6,0.0,0.0,87,0.00,CLR,,0.00,WeatherDisplay:10.37,2013-01-08 11:40:00,
2013-01-08 06:45:00,16.7,13.5,30.28,North,6,0.0,0.0,87,0.00,CLR,,0.00,WeatherDisplay:10.37,2013-01-08 11:45:00,
2013-01-08 06:50:00,17.2,14.0,30.28,North,6,0.0,0.0,87,0.00,CLR,,0.00,WeatherDisplay:10.37,2013-01-08 11:50:00,
2013-01-08 06:55:00,17.1,13.9,30.29,North,6,0.0,0.0,87,0.00,CLR,,0.00,WeatherDisplay:10.37,2013-01-08 11:55:00,
2013-01-08 07:00:00,17.6,14.4,30.29,North,6,0.0,0.0,87,0.00,CLR,,0.00,WeatherDisplay:10.37,2013-01-08 12:00:00,
2013-01-08 07:05:00,18.3,14.0,30.28,North,6,0.0,0.0,83,0.00,CLR,,0.00,WeatherDisplay:10.37,2013-01-08 12:05:00,
2013-01-08 07:10:00,17.5,13.3,30.29,North,6,0.0,0.0,83,0.00,CLR,,0.00,WeatherDisplay:10.37,2013-01-08 12:10:00,
2013-01-08 07:15:00,16.6,12.3,30.29,North,6,0.0,0.0,83,0.00,CLR,,0.00,WeatherDisplay:10.37,2013-01-08 12:15:00,
2013-01-08 07:20:00,16.6,12.3,30.29,North,6,0.0,0.0,83,0.00,CLR,,0.00,WeatherDisplay:10.37,2013-01-08 12:20:00,
2013-01-08 07:25:00,17.1,12.8,30.29,North,6,0.0,0.0,83,0.00,CLR,,0.00,WeatherDisplay:10.37,2013-01-08 12:25:00,
2013-01-08 07:30:00,16.3,12.0,30.29,North,6,0.0,0.0,83,0.00,CLR,,0.00,WeatherDisplay:10.37,2013-01-08 12:30:00,
2013-01-08 07:35:00,16.8,12.5,30.29,North,6,0.0,0.0,83,0.00,CLR,,0.00,WeatherDisplay:10.37,2013-01-08 12:35:00,
2013-01-08 07:40:00,17.1,12.9,30.30,North,6,0.0,0.0,83,0.00,CLR,,0.00,WeatherDisplay:10.37,2013-01-08 12:40:00,
2013-01-08 07:45:00,17.1,12.9,30.30,North,6,0.0,0.0,83,0.00,CLR,,0.00,WeatherDisplay:10.37,2013-01-08 12:45:00,
2013-01-08 07:50:00,17.3,13.0,30.30,North,6,0.0,0.0,83,0.00,CLR,,0.00,WeatherDisplay:10.37,2013-01-08 12:50:00,
2013-01-08 07:55:00,17.3,13.0,30.30,North,6,0.0,0.0,83,0.00,CLR,,0.00,WeatherDisplay:10.37,2013-01-08 12:55:00,
2013-01-08 08:00:00,17.6,13.3,30.30,North,6,0.0,0.0,83,0.00,CLR,,0.00,WeatherDisplay:10.37,2013-01-08 13:00:00,
2013-01-08 08:05:00,18.5,15.0,30.30,North,6,0.0,0.0,86,0.00,CLR,,0.00,WeatherDisplay:10.37,2013-01-08 13:05:00,
2013-01-08 08:10:00,18.8,15.3,30.30,North,6,0.0,0.0,86,0.00,CLR,,0.00,WeatherDisplay:10.37,2013-01-08 13:10:00,
2013-01-08 08:15:00,19.5,16.0,30.31,North,6,0.0,0.0,86,0.00,CLR,,0.00,WeatherDisplay:10.37,2013-01-08 13:15:00,
2013-01-08 08:20:00,19.7,16.2,30.31,North,6,0.0,0.0,86,0.00,CLR,,0.00,WeatherDisplay:10.37,2013-01-08 13:20:00,
2013-01-08 08:25:00,20.4,16.9,30.31,North,6,0.0,0.0,86,0.00,CLR,,0.00,WeatherDisplay:10.37,2013-01-08 13:25:00,
2013-01-08 08:30:00,21.0,17.4,30.31,North,6,0.0,0.0,86,0.00,CLR,,0.00,WeatherDisplay:10.37,2013-01-08 13:30:00,
2013-01-08 08:35:00,21.6,18.1,30.31,North,6,0.0,0.0,86,0.00,CLR,,0.00,WeatherDisplay:10.37,2013-01-08 13:35:00,
2013-01-08 08:40:00,21.9,18.3,30.31,North,6,0.0,0.0,86,0.00,CLR,,0.00,WeatherDisplay:10.37,2013-01-08 13:40:00,
2013-01-08 08:45:00,22.5,18.9,30.31,North,6,0.0,0.0,86,0.00,CLR,,0.00,WeatherDisplay:10.37,2013-01-08 13:45:00,
2013-01-08 08:50:00,23.0,19.5,30.31,North,6,0.0,0.0,86,0.00,CLR,,0.00,WeatherDisplay:10.37,2013-01-08 13:50:00,
2013-01-08 08:55:00,23.9,20.4,30.31,North,6,0.0,0.0,86,0.00,CLR,,0.00,WeatherDisplay:10.37,2013-01-08 13:55:00,
2013-01-08 09:00:00,24.9,21.3,30.31,North,6,0.0,6.0,86,0.00,CLR,,0.00,WeatherDisplay:10.37,2013-01-08 14:00:00,
2013-01-08 09:05:00,25.7,24.7,30.31,North,7,0.0,0.0,96,0.00,CLR,,0.00,WeatherDisplay:10.37,2013-01-08 14:05:00,
2013-01-08 09:10:00,26.6,25.7,30.31,North,7,0.0,5.0,96,0.00,CLR,,0.00,WeatherDisplay:10.37,2013-01-08 14:10:00,
2013-01-08 09:15:00,27.3,26.4,30.31,North,8,0.0,6.0,96,0.00,CLR,,0.00,WeatherDisplay:10.37,2013-01-08 14:15:00,
2013-01-08 09:20:00,27.7,26.7,30.31,North,8,1.0,8.0,96,0.00,CLR,,0.00,WeatherDisplay:10.37,2013-01-08 14:20:00,
2013-01-08 09:25:00,28.3,27.3,30.31,North,7,0.0,5.0,96,0.00,CLR,,0.00,WeatherDisplay:10.37,2013-01-08 14:25:00,
2013-01-08 09:30:00,28.7,27.7,30.31,North,7,0.0,7.0,96,0.00,CLR,,0.00,WeatherDisplay:10.37,2013-01-08 14:30:00,
2013-01-08 09:35:00,28.4,27.4,30.30,North,7,0.0,0.0,96,0.00,CLR,,0.00,WeatherDisplay:10.37,2013-01-08 14:35:00,
2013-01-08 09:40:00,28.9,27.9,30.30,North,7,0.0,0.0,96,0.00,CLR,,0.00,WeatherDisplay:10.37,2013-01-08 14:40:00,
2013-01-08 09:45:00,29.2,28.2,30.30,North,7,0.0,0.0,96,0.00,CLR,,0.00,WeatherDisplay:10.37,2013-01-08 14:45:00,
2013-01-08 09:50:00,29.8,28.8,30.30,North,8,0.0,5.0,96,0.00,CLR,,0.00,WeatherDisplay:10.37,2013-01-08 14:50:00,
2013-01-08 09:55:00,30.3,29.3,30.30,North,9,0.0,7.0,96,0.00,CLR,,0.00,WeatherDisplay:10.37,2013-01-08 14:55:00,
2013-01-08 10:00:00,30.9,29.8,30.30,North,9,0.0,5.0,96,0.00,CLR,,0.00,WeatherDisplay:10.37,2013-01-08 15:00:00,
2013-01-08 10:05:00,30.9,25.5,30.30,North,8,0.0,6.0,80,0.00,CLR,,0.00,WeatherDisplay:10.37,2013-01-08 15:05:00,
2013-01-08 10:10:00,31.4,26.0,30.30,North,8,0.0,0.0,80,0.00,CLR,,0.00,WeatherDisplay:10.37,2013-01-08 15:10:00,
2013-01-08 10:15:00,32.4,26.9,30.30,West,262,0.0,9.0,80,0.00,CLR,,0.00,WeatherDisplay:10.37,2013-01-08 15:15:00,
2013-01-08 10:20:00,32.2,26.7,30.30,SSW,206,0.0,0.0,80,0.00,CLR,,0.00,WeatherDisplay:10.37,2013-01-08 15:20:00,
2013-01-08 10:25:00,32.8,27.3,30.30,SW,219,1.0,8.0,80,0.00,CLR,,0.00,WeatherDisplay:10.37,2013-01-08 15:25:00,
2013-01-08 10:30:00,32.8,27.3,30.30,WSW,237,2.0,7.0,80,0.00,CLR,,0.00,WeatherDisplay:10.37,2013-01-08 15:30:00,
2013-01-08 10:35:00,33.5,28.0,30.29,WSW,258,0.0,3.0,80,0.00,CLR,,0.00,WeatherDisplay:10.37,2013-01-08 15:35:00,
2013-01-08 10:40:00,33.5,27.9,30.29,West,265,0.0,7.0,80,0.00,CLR,,0.00,WeatherDisplay:10.37,2013-01-08 15:40:00,
2013-01-08 10:45:00,33.6,28.0,30.29,West,268,1.0,5.0,80,0.00,CLR,,0.00,WeatherDisplay:10.37,2013-01-08 15:45:00,
2013-01-08 10:50:00,34.1,28.6,30.29,West,259,1.0,10.0,80,0.00,CLR,,0.00,WeatherDisplay:10.37,2013-01-08 15:50:00,
2013-01-08 10:55:00,34.0,28.5,30.29,South,178,0.0,0.0,80,0.00,CLR,,0.00,WeatherDisplay:10.37,2013-01-08 15:55:00,
2013-01-08 11:00:00,33.9,28.4,30.29,SE,140,0.0,6.0,80,0.00,CLR,,0.00,WeatherDisplay:10.37,2013-01-08 16:00:00,
2013-01-08 11:05:00,34.9,25.4,30.29,SSW,208,6.0,10.0,68,0.00,CLR,,0.00,WeatherDisplay:10.37,2013-01-08 16:05:00,
2013-01-08 11:10:00,34.8,25.3,30.28,WSW,239,2.0,6.0,68,0.00,CLR,,0.00,WeatherDisplay:10.37,2013-01-08 16:10:00,
2013-01-08 11:15:00,35.4,25.9,30.28,SSW,207,0.0,0.0,68,0.00,CLR,,0.00,WeatherDisplay:10.37,2013-01-08 16:15:00,
2013-01-08 11:20:00,36.0,26.4,30.28,SSW,192,0.0,3.0,68,0.00,CLR,,0.00,WeatherDisplay:10.37,2013-01-08 16:20:00,
2013-01-08 11:25:00,36.3,26.8,30.28,SW,216,0.0,6.0,68,0.00,CLR,,0.00,WeatherDisplay:10.37,2013-01-08 16:25:00,
2013-01-08 11:30:00,36.1,26.6,30.27,WNW,293,0.0,8.0,68,0.00,CLR,,0.00,WeatherDisplay:10.37,2013-01-08 16:30:00,
2013-01-08 11:35:00,36.8,27.2,30.27,WNW,300,0.0,5.0,68,0.00,CLR,,0.00,WeatherDisplay:10.37,2013-01-08 16:35:00,
2013-01-08 11:40:00,36.3,26.7,30.27,WNW,288,1.0,6.0,68,0.00,CLR,,0.00,WeatherDisplay:10.37,2013-01-08 16:40:00,
2013-01-08 11:45:00,37.0,27.4,30.27,West,265,1.0,7.0,68,0.00,CLR,,0.00,WeatherDisplay:10.37,2013-01-08 16:45:00,
2013-01-08 11:50:00,37.5,27.9,30.27,West,277,0.0,8.0,68,0.00,CLR,,0.00,WeatherDisplay:10.37,2013-01-08 16:50:00,
2013-01-08 11:55:00,37.5,27.9,30.27,WSW,244,2.0,10.0,68,0.00,CLR,,0.00,WeatherDisplay:10.37,2013-01-08 16:55:00,
2013-01-08 12:00:00,37.4,27.8,30.27,SW,230,0.0,6.0,68,0.00,CLR,,0.00,WeatherDisplay:10.37,2013-01-08 17:00:00,
2013-01-08 12:05:00,37.3,21.7,30.27,West,275,3.0,8.0,53,0.00,CLR,,0.00,WeatherDisplay:10.37,2013-01-08 17:05:00,
2013-01-08 12:10:00,36.9,21.3,30.26,West,281,0.0,5.0,53,0.00,CLR,,0.00,WeatherDisplay:10.37,2013-01-08 17:10:00,
2013-01-08 12:15:00,37.2,21.6,30.26,West,268,0.0,8.0,53,0.00,CLR,,0.00,WeatherDisplay:10.37,2013-01-08 17:15:00,
2013-01-08 12:20:00,37.4,21.8,30.26,SW,236,0.0,5.0,53,0.00,CLR,,0.00,WeatherDisplay:10.37,2013-01-08 17:20:00,
2013-01-08 12:25:00,37.1,21.5,30.26,SW,224,0.0,6.0,53,0.00,CLR,,0.00,WeatherDisplay:10.37,2013-01-08 17:25:00,
2013-01-08 12:30:00,37.4,21.8,30.26,SW,225,1.0,6.0,53,0.00,CLR,,0.00,WeatherDisplay:10.37,2013-01-08 17:30:00,
2013-01-08 12:35:00,38.1,22.4,30.26,WSW,240,0.0,9.0,53,0.00,CLR,,0.00,WeatherDisplay:10.37,2013-01-08 17:35:00,
2013-01-08 12:40:00,38.5,22.8,30.26,WSW,248,0.0,9.0,53,0.00,CLR,,0.00,WeatherDisplay:10.37,2013-01-08 17:40:00,
2013-01-08 12:50:00,38.3,22.7,30.26,SSW,205,0.0,7.0,53,0.00,CLR,,0.00,WeatherDisplay:10.37,2013-01-08 17:50:00,
2013-01-08 12:55:00,38.5,22.8,30.26,South,185,0.0,7.0,53,0.00,CLR,,0.00,WeatherDisplay:10.37,2013-01-08 17:55:00,
2013-01-08 13:00:00,38.5,22.8,30.26,SW,222,2.0,9.0,53,0.00,CLR,,0.00,WeatherDisplay:10.37,2013-01-08 18:00:00,
2013-01-08 13:05:00,38.7,18.7,30.25,WSW,247,0.0,0.0,44,0.00,CLR,,0.00,WeatherDisplay:10.37,2013-01-08 18:05:00,
2013-01-08 13:10:00,38.5,18.4,30.26,WSW,258,0.0,5.0,44,0.00,CLR,,0.00,WeatherDisplay:10.37,2013-01-08 18:10:00,
2013-01-08 13:15:00,38.5,18.4,30.25,West,259,0.0,6.0,44,0.00,CLR,,0.00,WeatherDisplay:10.37,2013-01-08 18:15:00,
2013-01-08 13:20:00,38.8,18.7,30.25,West,266,0.0,0.0,44,0.00,CLR,,0.00,WeatherDisplay:10.37,2013-01-08 18:20:00,
2013-01-08 13:25:00,38.9,18.9,30.25,West,270,0.0,0.0,44,0.00,CLR,,0.00,WeatherDisplay:10.37,2013-01-08 18:25:00,
2013-01-08 13:30:00,38.5,18.4,30.26,West,271,0.0,3.0,44,0.00,CLR,,0.00,WeatherDisplay:10.37,2013-01-08 18:30:00,
2013-01-08 13:35:00,39.0,18.9,30.26,West,280,0.0,0.0,44,0.00,CLR,,0.00,WeatherDisplay:10.37,2013-01-08 18:35:00,
2013-01-08 13:40:00,38.7,18.6,30.26,WNW,285,0.0,0.0,44,0.00,CLR,,0.00,WeatherDisplay:10.37,2013-01-08 18:40:00,
2013-01-08 13:45:00,38.7,18.7,30.26,WNW,285,0.0,0.0,44,0.00,CLR,,0.00,WeatherDisplay:10.37,2013-01-08 18:45:00,
2013-01-08 13:55:00,39.1,19.0,30.26,WNW,285,0.0,0.0,44,0.00,CLR,,0.00,WeatherDisplay:10.37,2013-01-08 18:55:00,
2013-01-08 14:00:00,38.5,18.4,30.26,WNW,285,0.0,0.0,44,0.00,CLR,,0.00,WeatherDisplay:10.37,2013-01-08 19:00:00,
2013-01-08 14:05:00,38.1,15.9,30.26,WNW,285,0.0,0.0,40,0.00,CLR,,0.00,WeatherDisplay:10.37,2013-01-08 19:05:00,
2013-01-08 14:10:00,38.2,16.0,30.26,West,274,0.0,6.0,40,0.00,CLR,,0.00,WeatherDisplay:10.37,2013-01-08 19:10:00,
2013-01-08 14:15:00,37.7,15.5,30.26,WSW,254,0.0,0.0,40,0.00,CLR,,0.00,WeatherDisplay:10.37,2013-01-08 19:15:00,
2013-01-08 14:20:00,38.6,16.3,30.26,WSW,254,1.0,7.0,40,0.00,CLR,,0.00,WeatherDisplay:10.37,2013-01-08 19:20:00,
2013-01-08 14:25:00,38.5,16.2,30.26,West,270,0.0,7.0,40,0.00,CLR,,0.00,WeatherDisplay:10.37,2013-01-08 19:25:00,
2013-01-08 14:30:00,38.1,15.9,30.26,WNW,283,0.0,0.0,40,0.00,CLR,,0.00,WeatherDisplay:10.37,2013-01-08 19:30:00,
2013-01-08 14:35:00,39.3,16.9,30.26,West,267,0.0,7.0,40,0.00,CLR,,0.00,WeatherDisplay:10.37,2013-01-08 19:35:00,
2013-01-08 14:40:00,39.2,16.9,30.27,WSW,250,0.0,0.0,40,0.00,CLR,,0.00,WeatherDisplay:10.37,2013-01-08 19:40:00,
2013-01-08 14:45:00,38.5,16.3,30.27,WSW,250,1.0,9.0,40,0.00,CLR,,0.00,WeatherDisplay:10.37,2013-01-08 19:45:00,
2013-01-08 14:50:00,39.5,17.1,30.27,WSW,243,0.0,8.0,40,0.00,CLR,,0.00,WeatherDisplay:10.37,2013-01-08 19:50:00,
2013-01-08 14:55:00,39.1,16.8,30.27,WSW,241,0.0,9.0,40,0.00,CLR,,0.00,WeatherDisplay:10.37,2013-01-08 19:55:00,
2013-01-08 15:00:00,38.8,16.5,30.27,WSW,241,0.0,3.0,40,0.00,CLR,,0.00,WeatherDisplay:10.37,2013-01-08 20:00:00,
2013-01-08 15:05:00,38.3,16.1,30.27,SSW,210,0.0,7.0,40,0.00,CLR,,0.00,WeatherDisplay:10.37,2013-01-08 20:05:00,
2013-01-08 15:10:00,37.4,15.2,30.27,SSW,194,0.0,3.0,40,0.00,CLR,,0.00,WeatherDisplay:10.37,2013-01-08 20:10:00,
2013-01-08 15:15:00,37.6,15.4,30.27,SSW,207,0.0,0.0,40,0.00,CLR,,0.00,WeatherDisplay:10.37,2013-01-08 20:15:00,
2013-01-08 15:20:00,36.6,14.5,30.27,SSW,212,0.0,0.0,40,0.00,CLR,,0.00,WeatherDisplay:10.37,2013-01-08 20:20:00,
2013-01-08 15:25:00,36.4,14.3,30.28,SSW,212,0.0,0.0,40,0.00,CLR,,0.00,WeatherDisplay:10.37,2013-01-08 20:25:00,
2013-01-08 15:35:00,36.0,14.0,30.27,SSW,212,0.0,0.0,40,0.00,CLR,,0.00,WeatherDisplay:10.37,2013-01-08 20:35:00,
2013-01-08 15:40:00,36.3,14.2,30.27,SSW,212,0.0,0.0,40,0.00,CLR,,0.00,WeatherDisplay:10.37,2013-01-08 20:40:00,
2013-01-08 15:45:00,35.6,13.6,30.28,SSW,212,0.0,0.0,40,0.00,CLR,,0.00,WeatherDisplay:10.37,2013-01-08 20:45:00,
2013-01-08 15:50:00,35.3,13.3,30.28,SSW,212,0.0,0.0,40,0.00,CLR,,0.00,WeatherDisplay:10.37,2013-01-08 20:50:00,
2013-01-08 15:55:00,35.0,13.1,30.27,SSW,212,0.0,0.0,40,0.00,CLR,,0.00,WeatherDisplay:10.37,2013-01-08 20:55:00,
2013-01-08 16:00:00,34.3,12.5,30.28,SSW,212,0.0,0.0,40,0.00,CLR,,0.00,WeatherDisplay:10.37,2013-01-08 21:00:00,
2013-01-08 16:05:00,33.9,13.2,30.29,SSW,212,0.0,0.0,42,0.00,CLR,,0.00,WeatherDisplay:10.37,2013-01-08 21:05:00,
2013-01-08 16:10:00,33.6,12.9,30.29,SSW,212,0.0,0.0,42,0.00,CLR,,0.00,WeatherDisplay:10.37,2013-01-08 21:10:00,
2013-01-08 16:15:00,32.8,12.2,30.29,SSW,212,0.0,0.0,42,0.00,CLR,,0.00,WeatherDisplay:10.37,2013-01-08 21:15:00,
2013-01-08 16:20:00,32.6,12.0,30.29,SSW,212,0.0,0.0,42,0.00,CLR,,0.00,WeatherDisplay:10.37,2013-01-08 21:20:00,
2013-01-08 16:25:00,32.7,12.1,30.29,SSW,212,0.0,0.0,42,0.00,CLR,,0.00,WeatherDisplay:10.37,2013-01-08 21:25:00,
2013-01-08 16:30:00,32.2,11.6,30.29,SSW,212,0.0,0.0,42,0.00,CLR,,0.00,WeatherDisplay:10.37,2013-01-08 21:30:00,
2013-01-08 16:35:00,31.6,11.1,30.29,SSW,212,0.0,0.0,42,0.00,CLR,,0.00,WeatherDisplay:10.37,2013-01-08 21:35:00,
2013-01-08 16:40:00,31.3,10.9,30.29,SSW,212,0.0,0.0,42,0.00,CLR,,0.00,WeatherDisplay:10.37,2013-01-08 21:40:00,
2013-01-08 16:45:00,30.8,10.4,30.30,SSW,212,0.0,0.0,42,0.00,CLR,,0.00,WeatherDisplay:10.37,2013-01-08 21:45:00,
2013-01-08 16:50:00,30.4,10.0,30.30,SSW,212,0.0,0.0,42,0.00,CLR,,0.00,WeatherDisplay:10.37,2013-01-08 21:50:00,
2013-01-08 16:55:00,30.6,10.2,30.30,SSW,212,0.0,0.0,42,0.00,CLR,,0.00,WeatherDisplay:10.37,2013-01-08 21:55:00,
2013-01-08 17:00:00,29.6,9.3,30.30,SSW,212,0.0,0.0,42,0.00,CLR,,0.00,WeatherDisplay:10.37,2013-01-08 22:00:00,
2013-01-08 17:05:00,29.4,12.6,30.30,SSW,212,0.0,0.0,49,0.00,CLR,,0.00,WeatherDisplay:10.37,2013-01-08 22:05:00,
2013-01-08 17:15:00,29.9,13.0,30.31,SSW,212,0.0,0.0,49,0.00,CLR,,0.00,WeatherDisplay:10.37,2013-01-08 22:15:00,
2013-01-08 17:20:00,29.3,12.5,30.31,SSW,212,0.0,0.0,49,0.00,CLR,,0.00,WeatherDisplay:10.37,2013-01-08 22:20:00,
2013-01-08 17:25:00,29.0,12.2,30.31,SSW,212,0.0,0.0,49,0.00,CLR,,0.00,WeatherDisplay:10.37,2013-01-08 22:25:00,
2013-01-08 17:30:00,28.9,12.1,30.32,SSW,212,0.0,0.0,49,0.00,CLR,,0.00,WeatherDisplay:10.37,2013-01-08 22:30:00,
2013-01-08 17:35:00,28.7,12.0,30.31,SSW,212,0.0,0.0,49,0.00,CLR,,0.00,WeatherDisplay:10.37,2013-01-08 22:35:00,
2013-01-08 17:40:00,28.6,11.9,30.31,SSW,212,0.0,0.0,49,0.00,CLR,,0.00,WeatherDisplay:10.37,2013-01-08 22:40:00,
2013-01-08 17:45:00,29.5,12.6,30.31,SSW,212,0.0,0.0,49,0.00,CLR,,0.00,WeatherDisplay:10.37,2013-01-08 22:45:00,
2013-01-08 17:55:00,28.1,11.4,30.31,SSW,212,0.0,0.0,49,0.00,CLR,,0.00,WeatherDisplay:10.37,2013-01-08 22:55:00,
2013-01-08 18:00:00,28.0,11.2,30.31,SSW,212,0.0,0.0,49,0.00,CLR,,0.00,WeatherDisplay:10.37,2013-01-08 23:00:00,
2013-01-08 18:05:00,28.2,17.9,30.31,SSW,212,0.0,0.0,65,0.00,CLR,,0.00,WeatherDisplay:10.37,2013-01-08 23:05:00,
2013-01-08 18:10:00,27.8,17.6,30.31,SSW,212,0.0,0.0,65,0.00,CLR,,0.00,WeatherDisplay:10.37,2013-01-08 23:10:00,
2013-01-08 18:15:00,27.8,17.5,30.31,SSW,212,0.0,0.0,65,0.00,CLR,,0.00,WeatherDisplay:10.37,2013-01-08 23:15:00,
2013-01-08 18:20:00,27.5,17.3,30.31,SSW,212,0.0,0.0,65,0.00,CLR,,0.00,WeatherDisplay:10.37,2013-01-08 23:20:00,
2013-01-08 18:25:00,27.4,17.2,30.32,SSW,212,0.0,0.0,65,0.00,CLR,,0.00,WeatherDisplay:10.37,2013-01-08 23:25:00,
2013-01-08 18:30:00,27.2,17.0,30.32,SSW,212,0.0,0.0,65,0.00,CLR,,0.00,WeatherDisplay:10.37,2013-01-08 23:30:00,
2013-01-08 18:35:00,27.3,17.1,30.32,SSW,212,0.0,0.0,65,0.00,CLR,,0.00,WeatherDisplay:10.37,2013-01-08 23:35:00,
2013-01-08 18:45:00,28.2,18.0,30.33,SSW,212,0.0,0.0,65,0.00,CLR,,0.00,WeatherDisplay:10.37,2013-01-08 23:45:00,
2013-01-08 18:50:00,27.2,16.9,30.33,SSW,212,0.0,0.0,65,0.00,CLR,,0.00,WeatherDisplay:10.37,2013-01-08 23:50:00,
2013-01-08 18:55:00,27.8,17.6,30.34,SSW,212,0.0,0.0,65,0.00,CLR,,0.00,WeatherDisplay:10.37,2013-01-08 23:55:00,
2013-01-08 19:00:00,27.3,17.1,30.34,SSW,212,0.0,0.0,65,0.00,CLR,,0.00,WeatherDisplay:10.37,2013-01-09 00:00:00,
2013-01-08 19:05:00,27.2,19.0,30.34,SSW,212,0.0,0.0,71,0.00,CLR,,0.00,WeatherDisplay:10.37,2013-01-09 00:05:00,
2013-01-08 19:10:00,27.2,19.1,30.34,SSW,212,0.0,0.0,71,0.00,CLR,,0.00,WeatherDisplay:10.37,2013-01-09 00:10:00,
2013-01-08 19:15:00,27.0,18.8,30.34,SSW,212,0.0,0.0,71,0.00,CLR,,0.00,WeatherDisplay:10.37,2013-01-09 00:15:00,
2013-01-08 19:20:00,28.0,19.8,30.34,SSW,212,0.0,0.0,71,0.00,CLR,,0.00,WeatherDisplay:10.37,2013-01-09 00:20:00,
2013-01-08 19:25:00,26.8,18.7,30.34,SSW,212,0.0,0.0,71,0.00,CLR,,0.00,WeatherDisplay:10.37,2013-01-09 00:25:00,
2013-01-08 19:30:00,27.4,19.2,30.34,SSW,212,0.0,0.0,71,0.00,CLR,,0.00,WeatherDisplay:10.37,2013-01-09 00:30:00,
2013-01-08 19:35:00,27.6,19.4,30.35,SSW,212,0.0,0.0,71,0.00,CLR,,0.00,WeatherDisplay:10.37,2013-01-09 00:35:00,
2013-01-08 19:45:00,27.6,19.4,30.35,SSW,212,0.0,0.0,71,0.00,CLR,,0.00,WeatherDisplay:10.37,2013-01-09 00:45:00,
2013-01-08 19:55:00,26.4,18.3,30.35,SSW,212,0.0,0.0,71,0.00,CLR,,0.00,WeatherDisplay:10.37,2013-01-09 00:55:00,
2013-01-08 20:00:00,27.7,19.5,30.35,SSW,212,0.0,0.0,71,0.00,CLR,,0.00,WeatherDisplay:10.37,2013-01-09 01:00:00,
2013-01-08 20:05:00,27.1,21.8,30.35,SSW,212,0.0,0.0,80,0.00,CLR,,0.00,WeatherDisplay:10.37,2013-01-09 01:05:00,
2013-01-08 20:10:00,26.7,21.4,30.35,SSW,212,0.0,0.0,80,0.00,CLR,,0.00,WeatherDisplay:10.37,2013-01-09 01:10:00,
2013-01-08 20:20:00,25.9,20.6,30.36,SSW,212,0.0,0.0,80,0.00,CLR,,0.00,WeatherDisplay:10.37,2013-01-09 01:20:00,
2013-01-08 20:25:00,25.9,20.6,30.36,SSW,212,0.0,0.0,80,0.00,CLR,,0.00,WeatherDisplay:10.37,2013-01-09 01:25:00,
2013-01-08 20:30:00,26.2,20.9,30.35,SSW,212,0.0,0.0,80,0.00,CLR,,0.00,WeatherDisplay:10.37,2013-01-09 01:30:00,
2013-01-08 20:35:00,26.9,21.6,30.35,SSW,212,0.0,0.0,80,0.00,CLR,,0.00,WeatherDisplay:10.37,2013-01-09 01:35:00,
2013-01-08 20:40:00,26.4,21.1,30.35,SSW,212,0.0,0.0,80,0.00,CLR,,0.00,WeatherDisplay:10.37,2013-01-09 01:40:00,
2013-01-08 20:45:00,25.8,20.5,30.35,SSW,212,0.0,0.0,80,0.00,CLR,,0.00,WeatherDisplay:10.37,2013-01-09 01:45:00,
2013-01-08 20:50:00,27.0,21.7,30.35,SSW,212,0.0,0.0,80,0.00,CLR,,0.00,WeatherDisplay:10.37,2013-01-09 01:50:00,
2013-01-08 20:55:00,27.0,21.6,30.35,SSW,212,0.0,0.0,80,0.00,CLR,,0.00,WeatherDisplay:10.37,2013-01-09 01:55:00,
2013-01-08 21:00:00,27.6,22.2,30.35,SSW,212,0.0,0.0,80,0.00,CLR,,0.00,WeatherDisplay:10.37,2013-01-09 02:00:00,
2013-01-08 21:05:00,27.0,23.7,30.35,SSW,212,0.0,0.0,87,0.00,CLR,,0.00,WeatherDisplay:10.37,2013-01-09 02:05:00,
2013-01-08 21:15:00,26.0,22.7,30.35,SSW,212,0.0,0.0,87,0.00,CLR,,0.00,WeatherDisplay:10.37,2013-01-09 02:15:00,
2013-01-08 21:20:00,26.8,23.4,30.35,SSW,212,0.0,0.0,87,0.00,CLR,,0.00,WeatherDisplay:10.37,2013-01-09 02:20:00,
2013-01-08 21:25:00,26.1,22.8,30.35,SSW,212,0.0,0.0,87,0.00,CLR,,0.00,WeatherDisplay:10.37,2013-01-09 02:25:00,
2013-01-08 21:30:00,25.4,22.1,30.35,SSW,212,0.0,0.0,87,0.00,CLR,,0.00,WeatherDisplay:10.37,2013-01-09 02:30:00,
2013-01-08 21:35:00,26.4,23.0,30.35,SSW,212,0.0,0.0,87,0.00,CLR,,0.00,WeatherDisplay:10.37,2013-01-09 02:35:00,
2013-01-08 21:40:00,25.9,22.6,30.35,SSW,212,0.0,0.0,87,0.00,CLR,,0.00,WeatherDisplay:10.37,2013-01-09 02:40:00,
2013-01-08 21:45:00,25.3,22.0,30.35,SSW,212,0.0,0.0,87,0.00,CLR,,0.00,WeatherDisplay:10.37,2013-01-09 02:45:00,
2013-01-08 21:50:00,25.5,22.2,30.35,SSW,212,0.0,0.0,87,0.00,CLR,,0.00,WeatherDisplay:10.37,2013-01-09 02:50:00,
2013-01-08 21:55:00,25.0,21.7,30.35,SSW,212,0.0,0.0,87,0.00,CLR,,0.00,WeatherDisplay:10.37,2013-01-09 02:55:00,
2013-01-08 22:00:00,25.1,21.7,30.35,SSW,212,0.0,0.0,87,0.00,CLR,,0.00,WeatherDisplay:10.37,2013-01-09 03:00:00,
2013-01-08 22:05:00,24.8,21.5,30.35,SSW,212,0.0,0.0,87,0.00,CLR,,0.00,WeatherDisplay:10.37,2013-01-09 03:05:00,
2013-01-08 22:10:00,25.1,21.8,30.35,SSW,212,0.0,0.0,87,0.00,CLR,,0.00,WeatherDisplay:10.37,2013-01-09 03:10:00,
2013-01-08 22:15:00,25.7,22.4,30.36,SSW,212,0.0,0.0,87,0.00,CLR,,0.00,WeatherDisplay:10.37,2013-01-09 03:15:00,
2013-01-08 22:20:00,25.9,22.6,30.36,SSW,212,0.0,0.0,87,0.00,CLR,,0.00,WeatherDisplay:10.37,2013-01-09 03:20:00,
2013-01-08 22:25:00,25.6,22.3,30.36,SSW,212,0.0,0.0,87,0.00,CLR,,0.00,WeatherDisplay:10.37,2013-01-09 03:25:00,
2013-01-08 22:30:00,25.9,22.5,30.36,SSW,212,0.0,0.0,87,0.00,CLR,,0.00,WeatherDisplay:10.37,2013-01-09 03:30:00,
2013-01-08 22:35:00,25.1,21.8,30.36,SSW,212,0.0,0.0,87,0.00,CLR,,0.00,WeatherDisplay:10.37,2013-01-09 03:35:00,
2013-01-08 22:40:00,25.0,21.7,30.36,SSW,212,0.0,0.0,87,0.00,CLR,,0.00,WeatherDisplay:10.37,2013-01-09 03:40:00,
2013-01-08 22:45:00,25.0,21.7,30.36,SSW,212,0.0,0.0,87,0.00,CLR,,0.00,WeatherDisplay:10.37,2013-01-09 03:45:00,
2013-01-08 22:50:00,25.2,21.8,30.36,SSW,212,0.0,0.0,87,0.00,CLR,,0.00,WeatherDisplay:10.37,2013-01-09 03:50:00,
2013-01-08 22:55:00,25.3,22.0,30.36,SSW,212,0.0,0.0,87,0.00,CLR,,0.00,WeatherDisplay:10.37,2013-01-09 03:55:00,
2013-01-08 23:00:00,25.1,21.8,30.36,SSW,212,0.0,0.0,87,0.00,CLR,,0.00,WeatherDisplay:10.37,2013-01-09 04:00:00,
2013-01-08 23:05:00,25.4,22.1,30.37,SSW,212,0.0,0.0,87,0.00,CLR,,0.00,WeatherDisplay:10.37,2013-01-09 04:05:00,
2013-01-08 23:10:00,26.4,23.1,30.37,SSW,212,0.0,0.0,87,0.00,CLR,,0.00,WeatherDisplay:10.37,2013-01-09 04:10:00,
2013-01-08 23:15:00,26.8,23.4,30.37,SSW,212,0.0,0.0,87,0.00,CLR,,0.00,WeatherDisplay:10.37,2013-01-09 04:15:00,
2013-01-08 23:20:00,25.3,22.0,30.37,SSW,212,0.0,0.0,87,0.00,CLR,,0.00,WeatherDisplay:10.37,2013-01-09 04:20:00,
2013-01-08 23:25:00,25.3,22.0,30.37,SSW,212,0.0,0.0,87,0.00,CLR,,0.00,WeatherDisplay:10.37,2013-01-09 04:25:00,
2013-01-08 23:30:00,25.1,21.7,30.37,SSW,212,0.0,0.0,87,0.00,CLR,,0.00,WeatherDisplay:10.37,2013-01-09 04:30:00,
2013-01-08 23:35:00,25.1,21.8,30.37,SSW,212,0.0,0.0,87,0.00,CLR,,0.00,WeatherDisplay:10.37,2013-01-09 04:35:00,
2013-01-08 23:40:00,24.9,21.5,30.38,SSW,212,0.0,0.0,87,0.00,CLR,,0.00,WeatherDisplay:10.37,2013-01-09 04:40:00,
2013-01-08 23:45:00,25.1,21.8,30.38,SSW,212,0.0,0.0,87,0.00,CLR,,0.00,WeatherDisplay:10.37,2013-01-09 04:45:00,
2013-01-08 23:50:00,25.2,21.8,30.38,SSW,212,0.0,0.0,87,0.00,CLR,,0.00,WeatherDisplay:10.37,2013-01-09 04:50:00,
2013-01-08 23:55:00,26.1,22.7,30.38,SSW,212,0.0,0.0,87,0.00,CLR,,0.00,WeatherDisplay:10.37,2013-01-09 04:55:00,